This demonstration page uses our WeatherBlox Daily Observations layout. Learn more.

Left ArrowRight Arrow

Hourly Observations for April 7, 2021

Temp ( °F °C ) Dew Point ( °F °C ) Humidity (%) Winds ( mph kmh ) Pressure ( in mb ) Visibility ( mi km ) Precip ( " mm )
12:59 am 00:59 Mostly Clear 55 12.8 32 0 42 42 S 7 11 29.99 1016 10 16 0.00 0.00
1:59 am 01:59 Partly Cloudy 55 12.8 34 1.1 45 45 S 7 11 29.99 1016 10 16 0.00 0.00
2:59 am 02:59 Partly Cloudy 54 12.2 36 2.2 51 51 S 6 9 29.98 1015 10 16 0.00 0.00
3:59 am 03:59 Partly Cloudy 54 12.2 39 3.9 57 57 S 5 7 29.98 1015 10 16 0.00 0.00
4:59 am 04:59 Partly Cloudy 53 11.7 39 3.9 59 59 Calm 29.97 1015 10 16 0.00 0.00
5:59 am 05:59 Mostly Clear 54 12.2 43 6.1 67 67 SSE 5 7 29.98 1015 10 16 0.00 0.00
6:59 am 06:59 Mostly Sunny 51 10.6 42 5.6 71 71 Calm 29.99 1016 10 16 0.00 0.00
7:59 am 07:59 Sunny 57 13.9 46 7.8 67 67 Calm 30.00 1016 10 16 0.00 0.00
8:59 am 08:59 Mostly Sunny 65 18.3 45 7.2 49 49 S 3 6 29.99 1016 10 16 0.00 0.00
9:59 am 09:59 Mostly Sunny 70 21.1 46 7.8 42 42 S 9 15 29.98 1015 8 13 0.00 0.00
10:59 am 10:59 Mostly Sunny 74 23.3 47 8.3 38 38 S 9 15 29.98 1015 9 14 0.00 0.00
11:59 am 11:59 Mostly Sunny 69 20.6 47 8.3 45 45 ENE 8 13 29.99 1016 10 16 0.00 0.00
12:59 pm 12:59 Mostly Sunny 74 23.3 49 9.4 41 41 ENE 7 11 29.97 1015 10 16 0.00 0.00
1:59 pm 13:59 Sunny 74 23.3 48 8.9 40 40 ENE 9 15 29.96 1014 10 16 0.00 0.00
2:59 pm 14:59 Mostly Sunny 75 23.9 49 9.4 40 40 ENE 7 11 29.94 1014 10 16 0.00 0.00
3:59 pm 15:59 Sunny 69 20.6 50 10 51 51 E 13 20 29.93 1014 10 16 0.00 0.00
4:59 pm 16:59 Sunny 68 20 49 9.4 51 51 E 14 22 29.93 1014 10 16 0.00 0.00
5:59 pm 17:59 Mostly Sunny 69 20.6 49 9.4 49 49 ESE 7 11 29.94 1014 10 16 0.00 0.00
6:59 pm 18:59 Partly Cloudy 68 20 45 7.2 44 44 SE 9 15 29.94 1014 9 14 0.00 0.00
7:59 pm 19:59 Clear 64 17.8 45 7.2 50 50 ESE 8 13 29.95 1014 10 16 0.00 0.00
8:59 pm 20:59 Mostly Clear 62 16.7 40 4.4 44 44 SSE 7 11 29.96 1015 10 16 0.00 0.00
9:59 pm 21:59 Partly Cloudy 62 16.7 45 7.2 54 54 SSE 9 15 29.96 1015 10 16 0.00 0.00
10:59 pm 22:59 Partly Cloudy 61 16.1 49 9.4 65 65 ESE 5 7 29.97 1015 10 16 0.00 0.00
11:59 pm 23:59 Partly Cloudy 61 16.1 51 10.6 70 70 ENE 5 7 29.98 1015 10 16 0.00 0.00

Powered by AerisWeather